FW6165 Weather Reports


time (UTC)temp
C
wind
direction
speed
KPH
gust
KPH
rain 1hr
cm
rain 24hr
cm
rain mn
cm
humidity
%
barometer
mb
20260510061441 12 136 0.0 0.0 0.00 0.00 0.00 82 1009.5
20260510060440 12 136 0.0 0.0 0.00 0.00 0.00 82 1009.5
20260510055440 12 134 0.0 0.0 0.00 0.00 0.00 82 1009.5
20260510054439 12 134 0.0 0.0 0.00 0.00 0.00 83 1009.5
20260510053438 12 134 0.0 0.0 0.00 0.00 0.00 83 1009.5
20260510052438 12 134 0.0 0.0 0.00 0.00 0.00 83 1009.5
20260510051437 12 134 0.0 0.0 0.00 0.00 0.00 83 1009.5
20260510050436 12 134 0.0 0.0 0.00 0.00 0.00 84 1009.5
20260510045435 13 134 0.0 0.0 0.00 0.00 0.00 84 1009.5
20260510044435 13 135 0.0 0.0 0.00 0.00 0.00 84 1009.8
20260510043434 13 134 0.0 0.0 0.00 0.00 0.00 85 1009.8
20260510042433 13 134 0.0 0.0 0.00 0.00 0.00 86 1009.8
20260510041433 13 134 0.0 0.0 0.00 0.00 0.00 86 1009.5
20260510040432 13 135 0.0 0.0 0.00 0.00 0.00 86 1009.5
20260510035431 13 136 0.0 0.0 0.00 0.00 0.00 87 1009.5
20260510034328 13 136 0.0 0.0 0.00 0.00 0.00 87 1009.5
20260510033327 14 134 0.0 0.0 0.00 0.00 0.00 87 1009.5
20260510032327 14 135 0.0 0.0 0.00 0.00 0.00 88 1009.5
20260510031326 14 134 0.0 0.0 0.00 0.00 0.00 88 1009.5
20260510030326 14 134 0.0 0.0 0.00 0.00 0.00 88 1009.1
20260510025325 15 136 0.0 0.0 0.00 0.00 0.00 88 1009.1
20260510024324 15 134 0.0 0.0 0.00 0.00 0.00 88 1009.1
20260510023324 15 134 0.0 0.0 0.00 0.00 0.00 88 1009.1
20260510022323 15 134 0.0 0.0 0.00 0.00 0.00 88 1009.1
20260510021322 15 134 0.0 0.0 0.00 0.00 0.00 88 1009.1
20260510020322 15 134 0.0 0.0 0.00 0.00 0.00 88 1009.1
20260510015321 15 134 0.0 0.0 0.00 0.00 0.00 88 1009.1
20260510014249 15 134 0.0 0.0 0.00 0.00 0.00 88 1008.8
20260510013248 15 135 0.0 0.0 0.00 0.00 0.00 88 1008.8
20260510012248 15 134 0.0 0.0 0.00 0.00 0.00 87 1008.8
20260510011247 16 136 0.0 0.0 0.00 0.00 0.00 86 1008.8
20260510010246 16 134 0.0 0.0 0.00 0.00 0.00 86 1008.5
20260510005215 16 134 0.0 0.0 0.00 0.00 0.00 85 1008.5
20260510004214 16 134 0.0 0.0 0.00 0.00 0.00 84 1008.5
20260510003213 17 134 0.0 0.0 0.00 0.00 0.00 83 1008.1
20260510002212 17 134 0.0 0.0 0.00 0.00 0.00 83 1008.1
20260510001212 17 134 0.0 0.0 0.00 0.00 0.00 83 1008.1
20260510000211 18 134 0.0 0.0 0.00 0.00 0.00 82 1008.1
20260509235210 18 134 0.0 0.0 0.00 0.00 0.00 82 1008.1
20260509234210 18 134 0.0 0.0 0.00 0.00 0.00 81 1007.8
20260509233209 18 134 0.0 0.0 0.00 0.00 0.00 79 1007.8
20260509232137 19 134 0.0 0.0 0.00 0.00 0.00 77 1007.8
20260509231136 20 134 0.0 1.6 0.00 0.00 0.00 75 1007.8
20260509230105 20 130 1.6 1.6 0.00 0.00 0.00 74 1007.8
20260509225033 20 344 0.0 6.4 0.00 0.00 0.00 73 1007.5
20260509224032 20 311 0.0 0.0 0.00 0.00 0.00 75 1007.8
20260509223031 20 311 0.0 0.0 0.00 0.00 0.00 75 1007.8
20260509222035 20 312 0.0 1.6 0.00 0.00 0.00 73 1007.8
20260509221030 21 312 0.0 1.6 0.00 0.00 0.00 70 1007.8
20260509220029 21 342 0.0 4.8 0.00 0.00 0.00 70 1007.8
20260509215028 21 346 1.6 3.2 0.00 0.00 0.00 71 1007.8
20260509214027 20 357 1.6 1.6 0.00 0.00 0.00 73 1007.8
20260509213027 20 23 1.6 1.6 0.00 0.00 0.00 73 1007.8
20260509212026 20 305 0.0 3.2 0.00 0.00 0.00 73 1007.8
20260509211025 20 121 0.0 4.8 0.00 0.00 0.00 72 1007.8
20260509210024 20 328 0.0 4.8 0.00 0.00 0.00 73 1007.5
20260509205023 20 116 0.0 4.8 0.00 0.00 0.00 73 1007.5
20260509204023 19 75 1.6 4.8 0.00 0.00 0.00 75 1007.5
20260509203022 19 120 1.6 4.8 0.00 0.00 0.00 75 1007.5
20260509202021 18 328 1.6 4.8 0.00 0.00 0.00 78 1007.8
20260509201020 18 351 0.0 6.4 0.00 0.00 0.00 77 1008.1
20260509195948 18 159 0.0 8.0 0.00 0.00 0.00 78 1008.1
20260509194917 18 353 3.2 8.0 0.00 0.00 0.00 77 1008.5
20260509193916 18 355 3.2 4.8 0.00 0.00 0.00 79 1008.5
20260509192916 18 338 0.0 3.2 0.00 0.00 0.00 78 1008.5
20260509191915 18 325 0.0 3.2 0.00 0.00 0.00 80 1008.5
20260509190914 18 4 1.6 1.6 0.00 0.00 0.00 83 1008.5
20260509185913 18 292 0.0 0.0 0.00 0.00 0.00 82 1008.8
20260509184913 18 277 0.0 0.0 0.00 0.00 0.00 78 1009.1
20260509183912 18 277 0.0 0.0 0.00 0.00 0.00 78 1009.1
20260509182911 18 277 0.0 0.0 0.00 0.00 0.00 77 1009.1
20260509181911 18 277 0.0 0.0 0.00 0.00 0.00 75 1009.1
20260509180910 18 278 0.0 0.0 0.00 0.00 0.00 74 1009.5
20260509175909 19 277 0.0 0.0 0.00 0.00 0.00 71 1009.8
20260509174908 19 277 0.0 0.0 0.00 0.00 0.00 72 1009.5
20260509173837 19 277 0.0 0.0 0.00 0.00 0.00 71 1009.5
20260509172836 19 276 0.0 0.0 0.00 0.00 0.00 68 1009.5
20260509171835 19 277 0.0 1.6 0.00 0.00 0.00 66 1009.5
20260509170834 20 277 0.0 1.6 0.00 0.00 0.00 64 1009.5
20260509165834 20 235 0.0 1.6 0.00 0.00 0.00 63 1009.5
20260509164833 20 263 0.0 1.6 0.00 0.00 0.00 62 1009.5
20260509163832 20 103 1.6 1.6 0.00 0.00 0.00 64 1009.5
20260509162831 20 278 0.0 1.6 0.00 0.00 0.00 62 1009.5
20260509161759 21 285 1.6 1.6 0.00 0.00 0.00 62 1009.5
20260509160728 20 323 0.0 1.6 0.00 0.00 0.00 64 1009.8
20260509155727 20 270 0.0 1.6 0.00 0.00 0.00 65 1009.8
20260509154726 20 284 1.6 1.6 0.00 0.00 0.00 64 1009.8
20260509153725 20 297 0.0 1.6 0.00 0.00 0.00 66 1009.8
20260509152725 19 263 1.6 1.6 0.00 0.00 0.00 67 1010.2
20260509151724 19 326 0.0 1.6 0.00 0.00 0.00 68 1010.2
20260509150723 18 305 0.0 1.6 0.00 0.00 0.00 70 1010.5
20260509145723 18 305 0.0 1.6 0.00 0.00 0.00 70 1010.5
20260509144722 17 314 0.0 0.0 0.00 0.00 0.00 74 1010.8
20260509143721 17 314 0.0 0.0 0.00 0.00 0.00 74 1010.8
20260509142721 17 314 0.0 0.0 0.00 0.00 0.00 73 1010.8
20260509141720 17 79 0.0 0.0 0.00 0.00 0.00 75 1010.8
20260509140719 17 79 0.0 0.0 0.00 0.00 0.00 75 1010.8
20260509135648 17 79 0.0 1.6 0.00 0.00 0.00 76 1010.8
20260509134647 16 79 0.0 1.6 0.00 0.00 0.00 76 1010.8
20260509133646 16 71 0.0 0.0 0.00 0.00 0.00 75 1010.8
20260509132646 16 72 0.0 1.6 0.00 0.00 0.00 76 1010.8
20260509131645 16 80 1.6 1.6 0.00 0.00 0.00 75 1010.8
20260509130644 16 250 1.6 1.6 0.00 0.00 0.00 76 1010.8
20260509125643 16 271 1.6 1.6 0.00 0.00 0.00 78 1010.8
20260509124642 15 262 0.0 0.0 0.00 0.00 0.00 78 1010.8
20260509123641 15 262 0.0 0.0 0.00 0.00 0.00 78 1010.8
20260509122641 15 263 0.0 0.0 0.00 0.00 0.00 79 1010.8
20260509121640 15 263 0.0 0.0 0.00 0.00 0.00 80 1010.8
20260509120639 14 263 0.0 0.0 0.00 0.00 0.00 80 1010.8
20260509115639 14 262 0.0 0.0 0.00 0.00 0.00 80 1010.8
20260509114638 13 263 0.0 1.6 0.00 0.00 0.00 81 1010.8
20260509113637 13 263 0.0 1.6 0.00 0.00 0.00 82 1010.8
20260509112636 13 108 1.6 1.6 0.00 0.00 0.00 82 1010.8
20260509111635 12 103 0.0 0.0 0.00 0.00 0.00 83 1010.8
20260509110635 12 103 0.0 0.0 0.00 0.00 0.00 83 1010.8
20260509105634 12 103 0.0 0.0 0.00 0.00 0.00 83 1010.8
20260509104633 12 103 0.0 0.0 0.00 0.00 0.00 83 1010.8
20260509103632 12 103 0.0 0.0 0.00 0.00 0.00 82 1010.5
20260509102601 12 103 0.0 0.0 0.00 0.00 0.00 81 1010.5
20260509101600 12 103 0.0 0.0 0.00 0.00 0.00 81 1010.5
20260509100559 12 103 0.0 0.0 0.00 0.00 0.00 81 1010.5
20260509095559 12 103 0.0 0.0 0.00 0.00 0.00 81 1010.2
20260509094558 13 103 0.0 0.0 0.00 0.00 0.00 81 1010.5
20260509093557 13 103 0.0 0.0 0.00 0.00 0.00 81 1010.5
20260509092557 13 103 0.0 0.0 0.00 0.00 0.00 81 1010.5
20260509091556 13 103 0.0 0.0 0.00 0.00 0.00 80 1010.5
20260509090555 13 103 0.0 0.0 0.00 0.00 0.00 77 1010.5
20260509085524 13 103 0.0 0.0 0.00 0.00 0.00 78 1010.5
20260509084523 13 103 0.0 0.0 0.00 0.00 0.00 77 1010.5
20260509083523 13 103 0.0 0.0 0.00 0.00 0.00 77 1010.5
20260509082522 13 103 0.0 0.0 0.00 0.00 0.00 78 1010.8
20260509081450 13 103 0.0 0.0 0.00 0.00 0.00 79 1011.2
20260509080449 13 103 0.0 0.0 0.00 0.00 0.00 80 1010.8
20260509075449 12 103 0.0 0.0 0.00 0.00 0.00 80 1010.8
20260509074417 12 103 0.0 0.0 0.00 0.00 0.00 80 1010.8
20260509073416 12 103 0.0 0.0 0.00 0.00 0.00 80 1010.8
20260509072313 12 103 0.0 0.0 0.00 0.00 0.00 81 1010.8
20260509071313 12 103 0.0 0.0 0.00 0.00 0.00 81 1011.2
20260509070312 12 103 0.0 0.0 0.00 0.00 0.00 81 1011.2
20260509065312 12 103 0.0 0.0 0.00 0.00 0.00 81 1011.2
20260509064311 12 103 0.0 0.0 0.00 0.00 0.00 81 1011.2
20260509063310 12 103 0.0 0.0 0.00 0.00 0.00 81 1011.5
20260509062309 12 103 0.0 0.0 0.00 0.00 0.00 81 1011.5